CW1756 Weather Reports


time (UTC)temp
C
wind
direction
speed
KPH
gust
KPH
rain 1hr
cm
rain 24hr
cm
rain mn
cm
humidity
%
barometer
mb
20260510010730 15 217 0.0 0.0 0.00 0.00 0.00 64 1010.5
20260510000734 17 360 11.3 16.1 0.00 0.00 0.00 56 1009.7
20260509230727 20 360 12.9 20.9 0.00 0.00 0.00 48 1009.4
20260509220754 20 360 9.7 19.3 0.00 0.00 0.00 50 1009.7
20260509210736 19 360 1.6 8.0 0.00 0.00 0.00 56 1009.5
20260509200749 19 360 3.2 8.0 0.00 0.00 0.00 55 1009.3
20260509190727 20 360 3.2 8.0 0.00 0.00 0.00 49 1009.4
20260509180738 17 360 1.6 6.4 0.00 0.00 0.00 55 1010.1
20260509170729 17 360 3.2 6.4 0.00 0.00 0.00 57 1010.7
20260509160723 16 63 6.4 9.7 0.00 0.00 0.00 59 1011.2
20260509150720 15 49 6.4 16.1 0.00 0.00 0.00 63 1011.3
20260509140741 14 15 1.6 8.0 0.00 0.00 0.00 70 1011.6
20260509130735 12 348 3.2 8.0 0.00 0.00 0.00 78 1011.4
20260509120735 11 282 0.0 1.6 0.00 0.00 0.00 77 1011.6
20260509110757 10 282 0.0 3.2 0.00 0.00 0.00 81 1011.4
20260509100746 10 282 0.0 0.0 0.00 0.00 0.00 77 1011.2
20260509090730 10 282 0.0 0.0 0.00 0.00 0.00 78 1011.1
20260509080724 11 282 0.0 0.0 0.00 0.00 0.00 74 1011.4
20260509070730 11 282 0.0 3.2 0.00 0.00 0.00 76 1011.6
20260509060720 11 282 0.0 0.0 0.00 0.00 0.00 73 1011.7
20260509050728 12 360 0.0 0.0 0.00 0.00 0.00 67 1012.2
20260509040722 12 360 0.0 0.0 0.00 0.00 0.00 65 1012.1
20260509030737 13 360 0.0 0.0 0.00 0.00 0.00 59 1012.2
20260509020734 13 360 0.0 0.0 0.00 0.00 0.00 55 1012.2